Content
SEND FEEDBACK

Daily
Averages
Monthly
Summary
United States of America

FONTANA DAM, NORTH CAROLINA


Home > North America > United States > North Carolina
Elevation: 1506 feet     Latitude: 35 27N     Longitude: 083 56W

WEATHER
 
SELECT A DAY
Number of Records: 301,554;   Date Range: 5/18/01 - 10/30/14
 
SHARE

PRINT THIS DATA

[ ← Previous Day ]
WEATHER ALMANAC - MARCH 3, 2013
[ Next Day → ]
[ °C ]   °F
Weather ElementAverageHighLow
Temperature28.5 °F34.3 °F (3:35 pm)22.6 °F (10:55 pm)
Dewpoint16.1 °F21 °F (5:55 am)11.3 °F (8:35 am)
Humidity60.7 %84 % (5:55 am)48 % (2:35 pm)
Barometer30.00 in30.05 in (8:55 pm)29.96 in (5:35 am)
Wind Speed6.2 mph16.1 mph (9:35 am)
Wind Gust24.2 mph (9:35 am)
Weather ElementAverage
Visibility9.4 mi
Wind DirectionE (94.5 °)

Weather ElementTotal
Precipitation---
Heating Degree Days36.6 (Base 65)
Averaged from 67 records on March 3, 2013
WEATHER CONDITIONS BREAKOUT
WIND DIRECTION BREAKOUT
WEATHER BY HOUR - MARCH 3, 2013
[ °C ]   °F
Local TimeTemperatureDewpointHumidityBarometerVisibilityWind DirectionWind SpeedGust SpeedPrecipitationEventsConditions
12:35 AM28.2 °F17.6 °F64 %29.99 in10.0 miNE (40°)8.1 mphOvercast
12:55 AM27.7 °F18.5 °F68 %29.99 in10.0 miNE (50°)8.1 mphSnowLight Snow
1:15 AM27.5 °F18.5 °F69 %29.99 in10.0 miEast (80°)9.2 mphSnowLight Snow
1:35 AM27.5 °F18.1 °F68 %29.99 in10.0 miNorth (350°)5.8 mphSnowLight Snow
1:55 AM27.3 °F17.4 °F66 %29.99 in10.0 miNorth (360°)8.1 mphSnowLight Snow
2:15 AM27.1 °F16.2 °F63 %29.98 in10.0 miNE (40°)8.1 mph17.3 mphOvercast
2:35 AM27.1 °F16.3 °F64 %29.98 in10.0 miNNE (20°)4.6 mphOvercast
2:55 AM27.1 °F16.3 °F64 %29.98 in10.0 miNorth (10°)3.5 mphSnowLight Snow
3:15 AM27.0 °F16.2 °F64 %29.97 in10.0 miNNE (30°)3.5 mphOvercast
3:35 AM26.6 °F17.6 °F69 %29.97 in10.0 miCalmSnowLight Snow
4:15 AM26.6 °F17.1 °F67 %29.97 in7.0 miNE (50°)5.8 mphSnowLight Snow
4:35 AM26.4 °F18.1 °F71 %29.97 in7.0 miENE (60°)3.5 mphSnowLight Snow
4:55 AM26.1 °F18.9 °F74 %29.97 in5.0 miNE (50°)4.6 mphSnowLight Snow
5:35 AM25.7 °F20.3 °F80 %29.96 in5.0 miCalmSnowLight Snow
5:55 AM25.3 °F21.0 °F84 %29.97 in4.0 miCalmSnowLight Snow
6:15 AM25.2 °F20.1 °F81 %29.97 in5.0 miCalmSnowLight Snow
6:35 AM25.5 °F18.5 °F75 %29.97 in3.0 miNE (50°)3.5 mphSnowLight Snow
6:55 AM25.0 °F14.7 °F65 %29.98 in5.0 miNorth (350°)4.6 mph20.7 mphSnowLight Snow
7:15 AM24.6 °F13.8 °F64 %29.98 in10.0 miNNE (20°)5.8 mph18.4 mphSnowLight Snow
7:35 AM24.4 °F12.6 °F61 %29.99 in10.0 miNE (50°)5.8 mph16.1 mphMostly Cloudy
7:55 AM24.6 °F11.7 °F58 %29.99 in10.0 miCalmMostly Cloudy
8:15 AM25.3 °F11.5 °F56 %29.99 in10.0 miEast (90°)6.9 mphScattered Clouds
8:35 AM25.9 °F11.3 °F54 %30.00 in10.0 miNE (50°)4.6 mphScattered Clouds
8:55 AM26.4 °F11.5 °F53 %30.00 in10.0 miEast (80°)11.5 mph16.1 mphOvercast
9:15 AM27.5 °F12.2 °F53 %30.00 in10.0 miCalmMostly Cloudy
9:35 AM27.3 °F12.2 °F53 %30.00 in10.0 miNNW (330°)16.1 mph24.2 mphScattered Clouds
9:55 AM28.2 °F12.6 °F52 %30.00 in10.0 miNNW (340°)9.2 mph20.7 mphScattered Clouds
10:15 AM28.6 °F14.0 °F54 %30.01 in10.0 miNNE (20°)10.4 mph16.1 mphScattered Clouds
10:35 AM28.8 °F14.7 °F56 %30.00 in10.0 miNorth (360°)11.5 mph21.9 mphMostly Cloudy
10:55 AM27.3 °F12.9 °F55 %30.01 in10.0 miNorth (360°)15.0 mph23.0 mphScattered Clouds
11:15 AM29.1 °F13.5 °F52 %30.00 in10.0 miNNE (20°)8.1 mph17.3 mphClear
11:35 AM30.2 °F15.3 °F54 %30.00 in10.0 miNorth (360°)10.4 mphScattered Clouds
11:55 AM30.9 °F15.3 °F52 %29.99 in10.0 miNNE (20°)12.7 mph20.7 mphScattered Clouds
12:15 PM31.8 °F16.0 °F52 %29.99 in10.0 miNNE (20°)9.2 mph18.4 mphClear
12:35 PM32.0 °F15.8 °F51 %29.99 in10.0 miNE (40°)11.5 mph18.4 mphClear
12:55 PM32.9 °F16.3 °F51 %29.99 in10.0 miNNE (20°)8.1 mphClear
1:15 PM33.6 °F17.2 °F51 %29.98 in10.0 miNNE (20°)12.7 mph18.4 mphClear
1:35 PM33.8 °F16.7 °F50 %29.98 in10.0 miNE (50°)12.7 mph19.6 mphScattered Clouds
1:55 PM33.8 °F16.5 °F49 %29.97 in10.0 miNorth (360°)8.1 mph18.4 mphScattered Clouds
2:15 PM33.6 °F16.2 °F49 %29.97 in10.0 miNorth (10°)11.5 mph21.9 mphClear
2:35 PM33.8 °F16.0 °F48 %29.97 in10.0 miNNE (20°)11.5 mph21.9 mphClear
2:55 PM34.2 °F16.7 °F49 %29.97 in10.0 miNNE (30°)15.0 mph20.7 mphClear
3:15 PM33.6 °F16.5 °F50 %29.98 in10.0 miNorth (360°)10.4 mph23.0 mphClear
3:35 PM34.3 °F16.7 °F49 %29.99 in10.0 miNorth (360°)11.5 mphClear
3:55 PM33.8 °F16.7 °F50 %29.99 in10.0 miNNE (20°)12.7 mph16.1 mphClear
4:15 PM34.0 °F16.5 °F49 %29.99 in10.0 miNorth (10°)4.6 mphClear
4:55 PM32.2 °F16.0 °F51 %29.99 in10.0 miNNW (340°)5.8 mphClear
5:15 PM32.9 °F17.2 °F53 %30.00 in10.0 miNorth (10°)9.2 mphScattered Clouds
5:35 PM32.7 °F16.7 °F52 %30.00 in10.0 miNE (40°)8.1 mphMostly Cloudy
5:55 PM32.0 °F16.7 °F53 %30.00 in10.0 miNE (50°)8.1 mphOvercast
6:15 PM31.5 °F16.2 °F53 %30.01 in10.0 miNorth (10°)6.9 mphOvercast
6:35 PM30.7 °F15.6 °F54 %30.01 in10.0 miNorth (10°)3.5 mphScattered Clouds
6:55 PM29.8 °F15.4 °F55 %30.02 in10.0 miNNW (340°)3.5 mphClear
7:35 PM29.3 °F14.9 °F55 %30.03 in10.0 miNorth (360°)3.5 mphClear
7:55 PM28.9 °F15.4 °F57 %30.04 in10.0 miNorth (10°)4.6 mphClear
8:15 PM28.9 °F15.3 °F57 %30.04 in10.0 miENE (60°)4.6 mphClear
8:35 PM27.5 °F16.2 °F62 %30.04 in10.0 miNNE (20°)3.5 mphClear
8:55 PM27.9 °F15.8 °F61 %30.05 in10.0 miCalmClear
9:15 PM27.5 °F16.3 °F63 %30.04 in10.0 miESE (120°)3.5 mphClear
9:35 PM25.5 °F17.1 °F70 %30.04 in10.0 miCalmClear
9:55 PM25.0 °F17.6 °F74 %30.04 in10.0 miCalmClear
10:15 PM23.9 °F16.9 °F75 %30.05 in10.0 miCalmClear
10:35 PM24.6 °F17.4 °F74 %30.05 in10.0 miCalmClear
10:55 PM22.6 °F17.2 °F80 %30.04 in10.0 miCalmClear
11:15 PM24.1 °F16.7 °F73 %30.04 in10.0 miCalmClear
11:35 PM23.5 °F17.8 °F79 %30.04 in10.0 miCalmClear
11:55 PM23.0 °F18.3 °F82 %30.05 in10.0 miCalmClear
Hourly data recorded from KRHP, located miles away from Fontana Dam, North Carolina







STORIES FROM OUR PARTNERS